TimeEST,TemperatureF,Dew PointF,Humidity,Sea Level PressureIn,VisibilityMPH,Wind Direction,Wind SpeedMPH,Gust SpeedMPH,PrecipitationIn,Events,Conditions,WindDirDegrees,DateUTC
12:53 AM,55.9,44.1,64,30.09,10.0,Variable,4.6,-,N/A,,Clear,0,2011-12-15 05:53:00
1:53 AM,55.9,44.1,64,30.10,10.0,SSW,4.6,-,N/A,,Partly Cloudy,200,2011-12-15 06:53:00
2:53 AM,57.0,44.1,62,30.09,10.0,Variable,4.6,-,N/A,,Overcast,0,2011-12-15 07:53:00
3:53 AM,57.9,44.1,60,30.07,10.0,Variable,4.6,-,N/A,,Scattered Clouds,0,2011-12-15 08:53:00
4:53 AM,57.9,44.1,60,30.06,10.0,Variable,3.5,-,N/A,,Overcast,0,2011-12-15 09:53:00
5:53 AM,57.0,44.1,62,30.07,10.0,Calm,Calm,-,N/A,,Overcast,0,2011-12-15 10:53:00
6:53 AM,57.2,44.6,63,30.10,10.0,SSW,4.6,-,N/A,Rain,Light Rain,210,2011-12-15 11:53:00
7:53 AM,57.0,45.0,64,30.06,10.0,Variable,3.5,-,0.00,,Overcast,0,2011-12-15 12:53:00
8:53 AM,57.2,46.4,67,30.04,10.0,SSW,9.2,19.6,N/A,,Overcast,200,2011-12-15 13:53:00
9:53 AM,60.1,46.0,60,30.03,10.0,Variable,5.8,-,0.00,,Overcast,0,2011-12-15 14:53:00
10:53 AM,61.0,48.0,62,30.02,10.0,Variable,5.8,18.4,0.00,Rain,Light Rain,0,2011-12-15 15:53:00
11:53 AM,61.0,50.0,67,30.00,10.0,Variable,6.9,24.2,0.01,Rain,Light Rain,0,2011-12-15 16:53:00
12:18 PM,60.8,51.8,72,30.01,8.0,Variable,6.9,18.4,0.00,Rain,Light Rain,0,2011-12-15 17:18:00
12:53 PM,59.0,51.1,75,29.99,10.0,Variable,3.5,20.7,0.00,,Overcast,0,2011-12-15 17:53:00
1:53 PM,57.9,53.1,84,29.99,9.0,Variable,4.6,-,0.01,Rain,Light Rain,0,2011-12-15 18:53:00
2:53 PM,59.0,53.1,81,29.97,10.0,Variable,4.6,-,0.00,,Overcast,0,2011-12-15 19:53:00
3:39 PM,57.2,53.6,88,29.99,4.0,Variable,4.6,-,0.00,Rain,Light Rain,0,2011-12-15 20:39:00
3:46 PM,57.2,53.6,88,30.00,3.0,SW,5.8,-,0.00,Rain,Light Rain,220,2011-12-15 20:46:00
3:53 PM,57.0,54.0,89,29.98,2.5,Variable,4.6,-,0.01,Rain,Light Rain,0,2011-12-15 20:53:00
4:03 PM,57.2,53.6,88,30.00,1.5,Variable,4.6,-,0.00,Rain,Light Rain,0,2011-12-15 21:03:00
4:40 PM,57.2,53.6,88,30.01,0.8,Variable,3.5,-,0.02,Rain,Light Rain,0,2011-12-15 21:40:00
4:49 PM,57.2,53.6,88,30.01,1.0,Variable,4.6,-,0.03,Rain,Light Rain,0,2011-12-15 21:49:00
4:53 PM,57.0,54.0,89,29.99,1.2,Variable,6.9,-,0.03,Rain,Light Rain,0,2011-12-15 21:53:00
4:56 PM,57.2,53.6,88,30.01,2.5,Variable,5.8,-,0.00,Rain,Light Rain,0,2011-12-15 21:56:00
5:03 PM,57.2,53.6,88,30.01,4.0,Variable,5.8,-,0.00,,Overcast,0,2011-12-15 22:03:00
5:19 PM,57.2,55.4,94,30.01,5.0,Variable,5.8,-,0.00,Rain,Light Rain,0,2011-12-15 22:19:00
5:53 PM,57.0,55.0,93,30.01,6.0,Variable,5.8,-,0.03,Rain,Light Rain,0,2011-12-15 22:53:00
6:33 PM,57.2,53.6,88,30.04,10.0,SW,8.1,-,0.00,,Overcast,230,2011-12-15 23:33:00
6:53 PM,57.0,54.0,89,30.04,10.0,Variable,3.5,-,0.00,Rain,Light Rain,0,2011-12-15 23:53:00
7:53 PM,57.0,54.0,89,30.05,10.0,Variable,4.6,-,0.00,,Mostly Cloudy,0,2011-12-16 00:53:00
8:00 PM,57.2,53.6,88,30.06,10.0,Variable,4.6,-,N/A,,Mostly Cloudy,0,2011-12-16 01:00:00
8:53 PM,57.0,53.1,87,30.07,10.0,SW,3.5,-,N/A,,Overcast,230,2011-12-16 01:53:00
9:29 PM,55.4,51.8,88,30.10,10.0,West,10.4,-,N/A,,Mostly Cloudy,270,2011-12-16 02:29:00
9:53 PM,55.9,51.1,84,30.09,10.0,West,8.1,16.1,N/A,,Mostly Cloudy,260,2011-12-16 02:53:00
10:53 PM,54.0,48.9,83,30.11,10.0,West,8.1,-,N/A,,Mostly Cloudy,280,2011-12-16 03:53:00
11:13 PM,53.6,46.4,77,30.14,10.0,WNW,10.4,19.6,N/A,,Overcast,290,2011-12-16 04:13:00
11:27 PM,51.8,46.4,82,30.15,10.0,NNW,8.1,20.7,N/A,,Overcast,340,2011-12-16 04:27:00
11:53 PM,50.0,43.0,77,30.15,10.0,West,9.2,17.3,N/A,,Overcast,280,2011-12-16 04:53:00